Weather History for Storm Lake, IA

Change the Weather History Date:

Monday, August 5, 2013

  Actual Average Record
Temperature  
Mean Temperature 71 °F -  
Max Temperature 80 °F 78 °F 89 °F (2001)
Min Temperature 62 °F 60 °F 53 °F (2004)
Cooling Degree Days 6    
Growing Degree Days 21 (Base 50)    
Moisture  
Dew Point 67 °F    
Average Humidity 90    
Maximum Humidity 100    
Minimum Humidity 69    
Precipitation  
Precipitation 0.07 in - - ()
Sea Level Pressure  
Sea Level Pressure 29.91 in    
Wind  
Wind Speed 9 mph (WSW)    
Max Wind Speed 24 mph    
Max Gust Speed 31 mph    
Visibility 8 miles    
Events Fog , Rain    
Averages and records for this station are not official NWS values.
T = Trace of Precipitation, MM = Missing Value Source: NWS Daily Summary

Daily Weather History Graph

Daily Weather History Graph

Search for Another Location

Airport:

Trip Planner

Search our weather history database for the weather conditions in past years. The results will help you decide how hot, cold, wet, or windy it might be!

Date:

Astronomy

Aug. 05, 2013 Rise Set
Actual Time 6:17 AM CDT 8:35 PM CDT
Civil Twilight 5:45 AM CDT 9:07 PM CDT
Nautical Twilight 5:06 AM CDT 9:45 PM CDT
Astronomical Twilight 4:23 AM CDT 10:28 PM CDT
Moon 5:13 AM CDT (8/5) 7:35 PM CDT (8/5)
Length of Visible Light 15h 21m
Length of Day
14h 18m
Waning Crescent, 1% of the Moon is Illuminated
Aug 5
Waning Crescent
Aug 6
New
Aug 14
First Quarter
Aug 20
Full
Aug 28
Last Quarter

Hourly Weather History & Observations

Time (CDT) Temp. Heat Index Dew Point Humidity Pressure Visibility Wind Dir Wind Speed Gust Speed Precip Events Conditions
12:15 AM 66.2 °F - 60.8 °F 83% 30.01 in 10.0 mi South 10.4 mph - N/A   Overcast
12:35 AM 66.2 °F - 60.8 °F 83% 30.01 in 10.0 mi South 9.2 mph - N/A   Mostly Cloudy
12:55 AM 66.2 °F - 60.8 °F 83% 30.00 in 10.0 mi South 10.4 mph - N/A   Scattered Clouds
1:15 AM 64.4 °F - 60.8 °F 88% 30.00 in 10.0 mi South 6.9 mph - N/A   Scattered Clouds
1:35 AM 64.4 °F - 60.8 °F 88% 29.99 in 10.0 mi South 8.1 mph - N/A   Partly Cloudy
1:55 AM 62.6 °F - 60.8 °F 94% 29.99 in 10.0 mi South 5.8 mph - N/A   Scattered Clouds
2:15 AM 62.6 °F - 60.8 °F 94% 29.97 in 10.0 mi South 10.4 mph - N/A   Partly Cloudy
2:35 AM 62.6 °F - 62.6 °F 100% 29.97 in 10.0 mi SSW 6.9 mph - N/A   Clear
2:55 AM 64.4 °F - 64.4 °F 100% 29.96 in 10.0 mi SW 10.4 mph - N/A   Clear
3:15 AM 64.4 °F - 64.4 °F 100% 29.96 in 10.0 mi SSW 9.2 mph - N/A   Clear
3:35 AM 64.4 °F - 64.4 °F 100% 29.95 in 10.0 mi SSW 9.2 mph - N/A   Clear
3:55 AM 64.4 °F - 64.4 °F 100% 29.95 in 8.0 mi SSW 10.4 mph - N/A   Clear
4:15 AM 64.4 °F - 64.4 °F 100% 29.94 in 5.0 mi SSW 10.4 mph - N/A   Mostly Cloudy
4:35 AM 64.4 °F - 64.4 °F 100% 29.94 in 3.0 mi SSW 8.1 mph - N/A   Overcast
4:55 AM 64.4 °F - 64.4 °F 100% 29.94 in 3.0 mi SSW 9.2 mph - N/A   Overcast
5:15 AM 66.2 °F - 66.2 °F 100% 29.95 in 3.0 mi SW 8.1 mph - N/A   Overcast
5:35 AM 66.2 °F - 66.2 °F 100% 29.95 in 3.0 mi SSW 6.9 mph - N/A   Overcast
5:55 AM 66.2 °F - 66.2 °F 100% 29.93 in 4.0 mi SSW 10.4 mph - N/A   Overcast
6:15 AM 66.2 °F - 66.2 °F 100% 29.94 in 4.0 mi SW 9.2 mph - N/A   Overcast
6:35 AM 66.2 °F - 66.2 °F 100% 29.93 in 3.0 mi SSW 9.2 mph - N/A   Overcast
6:55 AM 66.2 °F - 66.2 °F 100% 29.93 in 3.0 mi SSW 9.2 mph - N/A   Overcast
7:15 AM 66.2 °F - 66.2 °F 100% 29.93 in 3.0 mi SW 11.5 mph - N/A   Overcast
7:35 AM 68.0 °F - 68.0 °F 100% 29.93 in 3.0 mi SSW 10.4 mph 16.1 mph N/A   Overcast
7:55 AM 68.0 °F - 68.0 °F 100% 29.93 in 2.0 mi SW 10.4 mph - N/A   Overcast
8:15 AM 68.0 °F - 68.0 °F 100% 29.93 in 2.5 mi SW 15.0 mph - N/A   Overcast
8:35 AM 68.0 °F - 68.0 °F 100% 29.94 in 2.0 mi WSW 16.1 mph - N/A   Overcast
8:55 AM 68.0 °F - 68.0 °F 100% 29.94 in 2.0 mi WSW 10.4 mph - N/A   Overcast
9:15 AM 68.0 °F - 68.0 °F 100% 29.94 in 2.0 mi WSW 10.4 mph 16.1 mph N/A   Overcast
9:35 AM 68.0 °F - 68.0 °F 100% 29.96 in 0.8 mi West 9.2 mph - N/A   Overcast
9:55 AM 68.0 °F - 68.0 °F 100% 29.98 in 0.2 mi West 9.2 mph - N/A Fog Fog
10:15 AM 68.0 °F - 68.0 °F 100% 29.98 in 0.5 mi West 10.4 mph - N/A Rain Light Rain
10:35 AM 68.0 °F - 68.0 °F 100% 29.93 in 1.8 mi SW 11.5 mph 19.6 mph N/A Rain Rain
10:55 AM 68.0 °F - 68.0 °F 100% 29.77 in 4.0 mi SSE 17.3 mph 31.1 mph 0.07 in   Mostly Cloudy
11:15 AM 69.8 °F - 69.8 °F 100% 29.83 in 10.0 mi SSW 12.7 mph 21.9 mph N/A   Clear
11:35 AM 71.6 °F - 68.0 °F 88% 29.93 in 10.0 mi West 24.2 mph 31.1 mph N/A   Scattered Clouds
11:55 AM 71.6 °F - 68.0 °F 88% 29.93 in 10.0 mi WNW 9.2 mph 19.6 mph N/A   Scattered Clouds
12:15 PM 71.6 °F - 68.0 °F 88% 29.91 in - West 10.4 mph - N/A   Clear
12:35 PM 69.8 °F - 68.0 °F 94% 29.90 in 10.0 mi WNW 5.8 mph - N/A   Clear
12:55 PM 71.6 °F - 68.0 °F 88% 29.90 in 10.0 mi West 5.8 mph 12.7 mph N/A   Clear
1:15 PM 75.2 °F - 69.8 °F 83% 29.89 in 10.0 mi WSW 6.9 mph - N/A   Clear
1:35 PM 75.2 °F - 68.0 °F 78% 29.88 in 10.0 mi WSW 9.2 mph - N/A   Clear
1:55 PM 75.2 °F - 68.0 °F 78% 29.88 in 10.0 mi WSW 12.7 mph - N/A   Clear
2:15 PM 77.0 °F - 69.8 °F 78% 29.88 in 10.0 mi WSW 12.7 mph - N/A   Clear
2:35 PM 77.0 °F - 68.0 °F 74% 29.88 in 10.0 mi West 11.5 mph 17.3 mph N/A   Clear
2:55 PM 78.8 °F - 69.8 °F 74% 29.88 in 10.0 mi WNW 9.2 mph - N/A   Clear
3:15 PM 78.8 °F - 69.8 °F 74% 29.88 in 10.0 mi WNW 10.4 mph - N/A   Clear
3:35 PM 78.8 °F - 69.8 °F 74% 29.88 in 10.0 mi West 10.4 mph - N/A   Clear
3:55 PM 78.8 °F - 69.8 °F 74% 29.88 in 10.0 mi West 11.5 mph - N/A   Scattered Clouds
4:15 PM 78.8 °F - 68.0 °F 69% 29.88 in 10.0 mi West 9.2 mph - N/A   Partly Cloudy
4:35 PM 78.8 °F - 69.8 °F 74% 29.88 in 10.0 mi West 10.4 mph - N/A   Clear
4:55 PM 78.8 °F - 69.8 °F 74% 29.88 in 10.0 mi NW 11.5 mph - N/A   Clear
5:15 PM 78.8 °F - 69.8 °F 74% 29.88 in 10.0 mi NW 9.2 mph 17.3 mph N/A   Partly Cloudy
5:35 PM 78.8 °F - 69.8 °F 74% 29.87 in 10.0 mi WNW 8.1 mph - N/A   Scattered Clouds
5:55 PM 80.6 °F 83.9 °F 69.8 °F 70% 29.87 in 10.0 mi West 6.9 mph - N/A   Partly Cloudy
6:15 PM 80.6 °F 83.9 °F 69.8 °F 70% 29.87 in 10.0 mi NW 8.1 mph - N/A   Partly Cloudy
6:35 PM 78.8 °F - 69.8 °F 74% 29.87 in 10.0 mi West 6.9 mph - N/A   Partly Cloudy
6:55 PM 78.8 °F - 69.8 °F 74% 29.87 in 10.0 mi WNW 9.2 mph - N/A   Clear
7:15 PM 78.8 °F - 69.8 °F 74% 29.87 in 10.0 mi WNW 8.1 mph - N/A   Partly Cloudy
7:35 PM 78.8 °F - 71.6 °F 78% 29.86 in 10.0 mi West 5.8 mph - N/A   Clear
7:55 PM 77.0 °F - 71.6 °F 83% 29.87 in 10.0 mi West 5.8 mph - N/A   Clear
8:15 PM 75.2 °F - 71.6 °F 89% 29.87 in 10.0 mi West 5.8 mph - N/A   Clear
8:35 PM 73.4 °F - 69.8 °F 88% 29.88 in 10.0 mi WSW 5.8 mph - N/A   Clear
8:55 PM 71.6 °F - 69.8 °F 94% 29.88 in 10.0 mi WSW 4.6 mph - N/A   Clear
9:15 PM 71.6 °F - 69.8 °F 94% 29.87 in 10.0 mi WSW 6.9 mph - N/A   Clear
9:35 PM 69.8 °F - 69.8 °F 100% 29.87 in 10.0 mi WSW 4.6 mph - N/A   Clear
9:55 PM 71.6 °F - 68.0 °F 88% 29.87 in 10.0 mi West 6.9 mph - N/A   Clear
10:15 PM 69.8 °F - 68.0 °F 94% 29.87 in 10.0 mi West 6.9 mph - N/A   Clear
10:35 PM 69.8 °F - 68.0 °F 94% 29.87 in 10.0 mi West 8.1 mph - N/A   Clear
10:55 PM 69.8 °F - 68.0 °F 94% 29.86 in 10.0 mi West 8.1 mph - N/A   Clear
11:15 PM 71.6 °F - 68.0 °F 88% 29.86 in 10.0 mi WNW 6.9 mph - N/A   Clear
11:35 PM 69.8 °F - 68.0 °F 94% 29.87 in 10.0 mi WNW 8.1 mph - N/A   Clear
11:55 PM 69.8 °F - 68.0 °F 94% 29.87 in 10.0 mi WNW 6.9 mph - N/A   Clear